Location: Unspecified
(40.7945°N, 0.0000°E)
Time: 06:36:04
(UTC+00:00)

Courier 1B - Pass Details

Date: 24 January 2021
Orbit: 962 x 1209 km, 28.3° (Epoch: 03 March)

Event Time Altitude Azimuth Distance (km) Brightness Sun altitude
Rises 04:33:47 0° 254° (WSW) 3,634 - -30.8°
Reaches altitude 10° 04:38:14 10° 226° (SW) 2,700 - -29.9°
Maximum altitude 04:40:43 12° 203° (SSW) 2,544 - -29.5°
Exits shadow 04:42:14 11° 189° (S) 2,618 9.6 -29.2°
Drops below altitude 10° 04:43:14 10° 180° (S) 2,733 9.8 -29.0°
Sets 04:47:50 0° 152° (SSE) 3,727 10.9 -28.1°
